Regional Weather Roundup
Issued by NWS Goodland, KS

Home | Current Version | Previous Version | Graphics & Text | Print | Product List | Glossary Off
Versions: 1 2 3 4 5 6 7 8 9 10 11 12 13 14 15 16 17 18 19 20 21 22 23 24 25 26 27 28 29 30 31 32 33 34 35 36 37 38 39 40 41 42 43 44 45 46 47 48 49 50

000
ASUS43 KGLD 252308
RWRGLD

GOODLAND FORECAST AREA HOURLY WEATHER ROUNDUP
NATIONAL WEATHER SERVICE GOODLAND KS
500 PM MDT MON SEP 25 2017

...OFFICIAL OBSERVATIONS...

CITY           SKY/WX    TMP DP  RH WIND       PRES   REMARKS
GOODLAND KS    CLOUDY    49  48  97 N13       30.03F
HILL CITY KS   CLOUDY    55  54  96 N10       29.99S FOG
IMPERIAL NEB   CLOUDY    50  47  89 N10       30.06S
MCCOOK NEB     LGT RAIN  52  51  97 N12       30.02S
AKRON CO       CLOUDY    50  41  71 N13       30.06S
BURLINGTON CO  CLOUDY    49  48  97 N10       30.05S FOG
LIMON CO         N/A    N/A N/A N/A MISG      30.07R
$$

...UNOFFICIAL OBSERVATIONS...

CITY           SKY/WX    TMP DP  RH WIND       PRES   REMARKS
LENORA KS        N/A     52  32  46 MISG        N/A
NORTON KS      DRIZZLE   54  48  82 N8        30.00S
SHARON SPRINGS   N/A     50  49  95 N10G17      N/A
KIT CARSON CO    N/A     50  46  85 MISG        N/A
YUMA CO        DRIZZLE   46  45  93 NE9       30.07R
$$




USA.gov is the U.S. government's official web portal to all federal, state and local government web resources and services.